Location: Lambert
(44.2167°N, 6.2167°E)
Time: 22:10:28
(UTC+00:00)

Daily predictions for brighter satellites

Satellite Brightness Start Highest point End
(mag) Time Altitude Azimuth Time Altitude Azimuth Time Altitude Azimuth
Tsikada Rocket 4.1 16:46:45 10° S 16:52:53 87° W 16:59:05 10° N
USA 81 4.2 16:49:47 10° S 16:55:02 83° W 17:00:21 10° N
BlueWalker 3 3.5 16:53:47 10° NW 16:56:35 20° N 16:59:23 10° NE
BREEZE-M DEB (TANK) 1.2 16:54:46 10° WSW 16:57:06 68° NNW 16:59:49 10° ENE
Cosmos 1455 1.7 16:56:15 10° N 16:59:29 88° E 17:02:41 10° S
Cosmos 2278 Rocket 2.3 16:54:23 10° NNW 17:00:01 59° ENE 17:05:35 10° SE
Cosmos 2219 Rocket 3.6 16:54:59 10° WSW 17:00:01 34° NW 17:05:08 10° N
SJ-7 4.4 16:56:42 10° SSE 17:00:22 50° ENE 17:04:04 10° N
ARGOS Delta rocket 3.7 16:56:16 10° SSE 17:00:54 65° ENE 17:05:21 10° N
COSMO-SKYMED 1 3.6 16:58:43 10° NE 17:02:26 27° E 17:06:08 10° SSE
ISS -3.7 16:59:25 10° SW 17:02:45 72° SE 17:06:05 10° ENE
CZ-4C R/B 2.6 16:59:24 10° S 17:03:07 31° ESE 17:07:33 10° NE
CSL-04 DEB 4.2 17:00:59 10° SSE 17:04:50 70° ENE 17:08:38 10° N
Cosmos 2084 Rocket 3.9 17:01:53 10° NW 17:05:54 61° SW 17:09:49 10° SSE
Meteor 1-21 4.2 17:01:50 10° S 17:07:26 86° E 17:13:06 10° NNE
CORIOLIS 4.4 17:04:13 10° S 17:09:38 78° WSW 17:15:06 10° NNW
Cosmos 1763 Rocket 3.6 17:05:28 10° SSW 17:10:41 84° WNW 17:15:53 10° NNE
Spot 4 Rocket 4.0 17:06:04 10° SSE 17:11:11 86° ENE 17:16:21 10° NNW
YAOGAN 1 3.8 17:08:57 10° ESE 17:12:07 21° ENE 17:15:18 10° NNE
ATLAS 5 CENTAUR R/B 2.7 17:11:08 10° SSE 17:12:57 14° ESE 17:14:21 12° E
Cosmos 1733 Rocket 3.1 17:11:23 10° N 17:15:43 56° E 17:20:04 10° SSE
Cosmos 540 Rocket 3.4 17:11:16 10° SSW 17:16:24 86° ESE 17:21:33 10° NNE
Landsat 7 4.2 17:13:46 10° SE 17:18:06 39° ENE 17:22:27 10° N
Cosmos 468 Rocket 3.9 17:15:08 10° SSW 17:20:19 73° ESE 17:25:28 10° NNE
USA 215 4.2 17:16:40 10° NE 17:22:31 37° NNW 17:28:22 10° W
Cosmos 2228 Rocket 3.1 17:19:34 10° S 17:24:03 69° E 17:28:36 10° NNE
Cosmos 2279 Rocket 4.0 17:21:43 10° N 17:27:57 90° W 17:34:08 10° S
NOSS 8 (A) 4.2 17:26:46 10° NNW 17:29:44 64° NE 17:33:18 10° SE
Cosmos 841 Rocket 3.9 17:24:53 10° S 17:29:48 43° ESE 17:34:45 10° NNE
Cosmos 1898 Rocket 3.6 17:25:29 10° NNW 17:30:40 53° ENE 17:35:51 10° SE
PSLV R/B 4.0 17:28:03 10° S 17:32:03 60° WSW 17:36:06 10° NNW
Dummy Sat-01 4.5 17:29:01 10° S 17:32:41 78° E 17:36:22 10° N
Aureole 1 Rocket 4.3 17:27:13 10° NNW 17:34:55 71° ENE 17:41:41 10° SSE
Cosmos 1703 4.0 17:32:25 10° SSE 17:35:19 25° E 17:36:27 21° ENE
Okean 1-7 3.1 17:33:38 10° SSE 17:37:46 50° E 17:41:54 10° NNE
SL-16 R/B 3.1 17:33:23 10° SSE 17:38:02 27° ESE 17:40:55 18° ENE
Cosmos 1980 3.7 17:32:43 10° SSW 17:38:21 85° WNW 17:44:02 10° NNE
Cosmos 1953 2.5 17:40:48 10° NNW 17:44:29 64° W 17:48:09 10° S
SKYMED 2 3.5 17:46:16 10° NNE 17:50:38 88° ESE 17:54:58 10° SSW
Cosmos 1092 Rocket 4.4 17:47:13 10° SSE 17:52:45 36° E 17:58:20 10° NNE
Cosmos 1818 4.0 17:48:06 10° NNW 17:53:16 41° NE 17:56:19 22° ESE
ACS3 Solar Sail 1.8 17:48:29 10° SSE 17:54:48 69° ENE 18:01:11 10° N
ATLAS 2AS CENTAUR R/B 3.0 17:48:23 10° NNW 17:54:51 43° NE 17:59:05 20° ESE
COSMOS 2428 4.3 17:50:55 10° WSW 17:55:55 31° NW 18:00:56 10° N
Cosmos 2369 Rocket 3.2 17:51:48 10° N 17:56:20 25° NE 17:56:55 24° ENE
Cosmos 372 Rocket 3.9 17:55:36 10° NNW 18:00:42 88° WSW 18:05:48 10° SSE
DNEPR-1 R/B 4.0 18:00:49 10° NW 18:05:29 64° WSW 18:09:38 10° SSE
BREEZE-M DEB (TANK) 3.8 17:57:58 10° W 18:05:58 46° NNW 18:07:22 31° NE
Cosmos 1908 Rocket 3.4 18:04:29 10° N 18:08:48 65° E 18:13:05 10° SSE
Meteor 2-12 Rocket 4.4 18:04:02 10° S 18:09:59 63° E 18:16:01 10° NNE
Meteor 1-31 Rocket 2.6 18:07:44 10° S 18:11:17 76° WSW 18:14:52 10° NNW
EO 1 Delta rocket 4.1 18:09:53 10° N 18:14:34 69° WNW 18:19:13 10° SSW
Cosmos 2297 4.1 18:14:15 10° NNW 18:19:40 40° ENE 18:20:17 39° ENE
CZ-2C R/B 4.2 18:22:19 21° N 18:22:19 21° N 18:23:31 10° N
Cosmos 1937 Rocket 3.5 18:15:33 10° NNW 18:20:43 80° WSW 18:25:53 10° SSE
Cosmos 2026 Rocket 4.0 18:15:05 10° S 18:21:21 65° E 18:27:39 10° NNE
Cosmos 1932 4.3 18:16:47 10° SSW 18:22:55 71° ESE 18:25:50 33° NE
Cosmos 858 Rocket 4.4 18:20:04 10° NNW 18:25:19 86° ENE 18:30:32 10° SSE
Cosmos 1825 4.2 18:22:53 10° S 18:23:11 12° S 18:23:11 12° S
BREEZE-M DEB (TANK) 3.5 18:12:50 10° WSW 18:27:13 71° NNW 18:28:56 41° NE
Cosmos 1428 Rocket 4.5 18:22:01 10° S 18:28:14 83° W 18:34:26 10° N
Cosmos 1943 Rocket 3.7 18:24:19 10° NW 18:29:27 36° WSW 18:34:31 10° S
RESURS DK-1 4.4 18:26:41 10° NW 18:30:10 28° WSW 18:33:37 10° SSW
Cosmos 2237 Rocket 3.5 18:27:31 10° WSW 18:32:44 37° NW 18:37:58 10° NNE
BlueWalker 3 3.1 18:31:34 10° NW 18:33:53 31° NNW 18:33:53 31° NNW
COSMO-SKYMED 1 4.4 18:34:47 10° N 18:38:34 29° WNW 18:42:19 10° SW
ISS -1.9 18:36:45 10° WNW 18:39:01 26° NW 18:39:01 26° NW
YAOGAN 1 3.9 18:43:46 10° SSW 18:47:46 39° W 18:51:48 10° NNW
CZ-4C R/B 3.0 18:47:02 10° WSW 18:51:12 37° NW 18:53:04 28° N
ATLAS 5 CENTAUR R/B 2.9 18:52:48 10° WSW 18:54:38 26° W 18:54:38 26° W
Meteor 1-24 Rocket 3.7 18:50:31 10° S 18:56:24 83° E 18:58:08 49° NNE
SPOT 1/Viking Rocket 4.1 18:53:54 10° S 18:58:57 56° W 19:04:02 10° NNW
USA 215 4.3 19:03:32 28° NNE 19:04:27 29° N 19:09:53 10° NW
Meteor 2-5 Rocket 3.7 19:01:18 10° S 19:07:02 85° W 19:07:37 73° N
Cosmos 1656 Rocket 4.0 19:08:45 10° NNW 19:14:10 62° WSW 19:14:50 57° SW
SL-16 R/B 3.0 19:16:23 10° SW 19:21:51 48° WNW 19:22:50 43° NNW
BREEZE-M DEB (TANK) 4.5 18:55:22 10° SW 19:24:11 71° SSE 19:25:37 63° ESE
ACS3 Solar Sail 4.2 19:34:14 10° SW 19:38:53 21° W 19:43:34 10° NW
Cosmos 2369 Rocket 3.3 19:35:15 10° NNW 19:38:45 37° NW 19:38:45 37° NW
ATLAS 2AS CENTAUR R/B 3.4 19:39:24 10° NW 19:45:46 45° WSW 19:46:35 43° SW
